SCP
0 0 0 0 0 0 0 0 0 0 0 0 0 0 0 0 0 -0 -0 -0 -0 -0 -0 -0 -0 0 0 0 0 0 0 0 0 0 0 0 0 -0 0 0 0 0 0 -0 -0 0 0
0 0 0 0 0 0 0 0 0 0 0 0 0 0 0 -0 -0 -0 -0 -0 -0 -0 -0 -0 -0 -0 0 0 0 0 0 0 0 0 0 0 0 0 0 0 0 -0 -0 -0 -0 0 0
0 0 0 0 0 0 0 0 0 0 0 0 0 0 -0 -0 -0 -0 -0 -0 -0 -0 -0 -0 -0 -0 0 0 0 0 0 0 0 0 0 0 0 0 0 -0 0 -0 -0 -0 0 0 0
0 0 0 0 0 0 0 0 0 0 0 0 0 0 -0 -0 -0 -0 -0 -0 -0 -0 -0 -0 -0 -0 0 0 0 0 0 0 0 0 0 0 0 0 0 -0 -0 -0 -0 -0 -0 0 0
0 0 0 0 0 0 0 0 0 0 0 0 0 0 0 -0 -0 -0 -0 -0 -0 0 0 -0 -0 0 0 0 0 0 0 0 0 0 0 0 0 0 0 0 0 0 -0 0 -0 -0 0
0 0 0 0 0 0 0 0 0 0 0 0 0 0 0 -0 -0 -0 -0 -0 -0 0 -0 -0 -0 0 0 0 0 0 0 0 0 0 0 0 0 0 0 0 0 0 0 0 0 0 0
0 0 0 0 0 0 0 0 0 0 0 0 0 0 0 -0 -0 -0 0 -0 0 0 0 0 0 0 0 0 0 0 0 0 0 0 0 0 0 -0 0 0 0 0 0 -0 0 0 0
0 0 0 0 0 0 0 0 0 0 0 0 0 0 0 0 -0 -0 -0 -0 -0 -0 -0 0 0 -0 -0 0 0 0 0 0 0 0 0 0 -0 -0 0 -0 -0 -0 0 0 0 0 0
0 0 0 0 0 0 0 0 0 0 0 0 0 0 0 -0 -0 0 0 -0 -0 -0 0 0 0 0 0 0 0 0 0 0 0 0 -0 -0 0 0 0 0 -0 -0 0 0 0 0 0
0 0 0 0 0 0 0 0 0 0 0 0 0 0 0 -0 0 0 0 0 -0 -0 0 0 0 0 0 0 0 0 0 0 0 -0 -0 0 0 0 0 -0 0 0 0 -0 -0 0 0
0 0 0 0 0 0 0 0 0 0 0 0 0 0 0 0 0 0 0 0 0 0 0 0 0 0 0 0 0 0 0 0 0 0 0 0 -0 0 0 -0 0 0 -0 -0 0 0 0
0 0 0 0 0 0 0 0 0 0 0 0 0 0 0 0 0 0 0 0 0 0 0 0 0 0 0 0 0 0 0 0 0 0 0 0 0 0 -0 0 0 -0 -0 0 0 0 0
0 0 0 0 0 0 0 0 0 0 0 0 0 0 0 0 0 0 0 0 0 0 0 0 0 0 0 0 0 0 0 0 0 0 0 0 0 0 0 0 0 0 0 0 0 0 0
0 0 0 0 0 0 0 0 0 0 0 0 0 0 0 0 0 0 0 0 0 0 0 0 0 0 0 0 0 0 0 0 0 0 0 0 0 0 0 0 -0 -0 0 0 0 0 0
0 0 0 0 0 0 0 0 0 0 0 0 0 0 0 0 0 0 0 0 0 0 0 0 0 0 0 0 0 0 0 0 0 0 0 0 0 0 0 0 0 0 0 0 0 0 0
0 0 0 0 0 0 0 0 0 0 0 0 0 0 0 0 0 0 0 0 0 0 0 0 0 0 0 0 0 0 0 0 0 0 0 0 0 0 0 0 0 0 0 0 0 0 0
0 0 0 0 0 0 0 0 0 0 0 0 0 0 0 0 0 0 0 0 0 0 0 0 0 0 0 0 0 0 0 0 0 0 0 0 0 0 0 0 0 0 0 0 0 0 0
0 0 0 0 0 0 0 0 0 0 0 0 0 0 0 0 0 0 0 0 0 0 0 0 0 0 0 0 0 0 0 0 0 0 0 0 0 0 0 0 0 0 0 0 0 0 0
0 0 0 0 0 0 0 0 0 0 0 0 0 0 0 0 0 0 0 0 0 0 0 0 0 0 0 0 0 0 0 0 0 0 0 0 0 0 0 0 0 0 0 0 0 0 0
0 0 0 0 0 0 0 0 0 0 0 0 0 0 0 0 0 0 0 0 0 0 0 0 0 0 0 0 0 0 0 0 0 0 0 0 0 0 0 0 0 0 0 0 0 0 0
0 0 0 0 0 0 0 0 0 0 0 0 0 0 0 0 0 0 0 0 0 0 0 0 0 0 0 0 0 0 0 0 0 0 0 0 0 0 0 0 0 0 0 0 0 0 0
0 0 0 0 0 0 0 0 0 0 0 0 0 0 0 0 0 0 0 0 0 0 0 0 0 0 0 0 0 0 0 0 0 0 0 0 0 0 0 0 0 0 0 0 0 0 0
0 0 0 0 0 0 0 0 0 0 0 0 0 0 0 0 0 0 0 0 0 0 0 0 0 0 0 0 0 0 0 0 0 0 0 0 0 0 0 0 0 0 0 0 0 0 0
0 0 0 0 0 0 0 0 0 0 0 0 0 0 0 0 0 0 0 0 0 0 0 0 0 0 0 0 0 0 0 0 0 0 0 0 0 0 0 0 0 0 0 0 0 0 0
0 0 0 0 0 0 0 0 0 0 0 0 0 0 0 0 0 0 0 0 0 0 0 0 0 0 0 0 0 0 0 0 0 0 0 0 0 0 0 0 0 0 0 0 0 0 0
0 0 0 0 0 0 0 0 0 0 0 0 0 0 0 0 0 0 0 0 0 0 0 0 0 0 0 0 0 0 0 0 0 0 0 0 0 0 0 0 0 0 0 0 0 0 0
0 0 0 0 0 0 0 0 0 0 0 0 0 0 0 0 0 0 0 0 0 0 0 0 0 0 0 0 0 0 0 0 0 0 0 0 0 0 0 0 0 0 0 0 0 0 0
0 0 0 0 0 0 0 0 0 0 0 0 0 0 0 0 0 0 0 0 0 0 0 0 0 0 0 0 0 0 0 0 0 0 0 0 0 0 0 0 0 0 0 0 0 0 0
0 0 0 0 0 0 0 0 0 0 0 0 0 0 0 0 0 0 0 0 0 0 0 0 0 0 0 0 0 0 0 0 0 0 0 0 0 0 0 0 0 0 0 0 0 0 0
Wind_Speed_500mb
25 28 27 27 29 30 30 32 32 33 34 35 36 38 40 42 46 52 54 54 56 50 47 39 26 20 13 4 7 5 16 28 26 32 28 17 9 6 8 9 9 10 8 25 44 33 21
24 26 28 27 28 30 31 32 32 33 34 34 36 38 40 43 47 52 55 55 54 49 40 29 19 16 9 2 6 7 18 28 30 30 26 16 3 1 6 10 8 27 40 32 42 28 25
20 27 27 27 27 28 29 30 31 31 32 33 34 38 40 44 48 53 55 54 52 41 28 21 17 18 10 4 2 5 18 22 29 28 19 8 2 6 6 18 38 60 23 20 16 24 13
22 22 27 28 27 27 28 28 29 30 31 33 34 37 40 43 48 53 55 52 50 29 20 18 17 16 5 9 3 3 15 26 28 25 11 4 5 8 7 60 13 13 9 12 13 25 18
21 22 22 26 29 27 28 29 28 29 31 33 36 38 40 41 45 52 52 50 35 23 15 20 15 8 4 3 6 2 19 27 25 14 9 14 8 8 18 15 9 6 12 9 15 31 4
23 22 22 22 26 29 29 30 30 29 30 33 36 39 40 40 44 51 50 47 20 17 13 14 7 5 4 3 4 6 13 19 15 7 11 10 7 6 7 7 11 9 10 6 14 7 10
29 25 23 22 23 26 30 30 31 30 31 32 35 38 39 38 41 38 50 34 16 6 37 24 18 17 28 9 5 10 14 20 12 1 4 4 9 9 12 11 13 10 8 9 9 1 14
35 30 28 26 25 25 26 29 29 29 30 32 34 36 37 34 36 28 24 22 27 25 29 45 49 49 45 42 13 5 16 14 10 6 2 9 6 12 12 13 12 6 9 7 9 10 16
39 37 34 32 29 28 27 28 28 28 29 31 34 34 36 30 25 23 14 31 27 30 10 25 11 16 15 20 14 15 22 13 8 8 7 7 7 11 12 8 12 11 13 13 14 16 19
42 40 37 35 36 32 31 30 30 29 29 30 33 34 35 28 7 21 6 31 32 18 8 12 7 3 21 13 8 23 20 14 2 12 9 6 7 6 2 8 15 8 17 27 33 9 10
42 28 39 38 39 36 33 33 33 33 32 31 32 34 31 26 29 20 19 30 22 2 8 3 2 6 23 20 6 11 25 19 11 7 8 7 3 5 5 9 16 2 33 29 12 11 10
40 43 33 44 30 39 40 37 35 35 36 34 33 35 32 29 27 10 29 29 2 9 8 10 7 4 7 2 1 8 13 13 12 4 1 13 9 8 16 6 15 30 34 18 12 8 6
23 30 36 39 41 40 38 39 36 37 38 38 36 35 34 31 24 25 29 15 7 6 9 9 5 1 7 6 3 4 9 9 10 7 5 8 7 8 9 17 4 16 13 6 4 2 8
21 17 26 31 30 35 41 38 34 35 38 41 40 39 34 32 27 21 20 7 4 6 10 6 6 3 12 11 9 8 12 11 9 7 5 3 4 6 8 15 17 17 14 12 13 10 7
21 22 24 22 33 32 34 36 35 34 35 39 42 39 35 24 16 11 2 5 12 9 8 14 13 5 5 6 6 7 16 17 17 17 12 8 8 7 4 6 7 10 8 10 15 5 8
18 21 23 25 26 28 34 36 35 30 30 34 39 36 24 14 17 14 8 9 8 6 11 8 5 5 6 6 10 11 14 11 11 20 11 3 2 4 5 8 19 9 12 6 7 9 5
20 19 20 22 23 27 26 24 30 27 25 27 29 20 5 7 32 13 6 12 11 17 8 8 6 5 6 5 12 10 14 5 11 10 19 9 6 5 7 8 5 3 5 14 12 6 10
19 20 18 19 20 22 23 21 21 23 20 18 12 6 17 36 7 2 6 10 8 9 10 12 7 8 8 4 6 11 14 8 3 24 18 10 10 7 3 10 1 6 7 9 9 7 4
19 20 20 19 18 18 19 18 17 17 15 10 7 12 10 9 5 3 8 7 7 6 7 9 7 7 3 5 4 9 9 3 7 10 16 14 3 7 12 12 6 12 5 9 12 8 9
18 19 20 19 17 17 16 17 15 14 14 10 6 5 6 20 8 7 1 6 8 12 14 18 9 6 5 3 7 4 6 6 9 7 14 14 7 12 14 13 8 8 5 4 9 8 10
21 20 19 19 17 16 14 17 15 16 16 13 6 5 3 4 6 5 4 3 7 11 10 11 2 4 4 5 7 5 4 3 12 3 7 7 9 6 8 2 8 7 6 6 6 10 6
23 20 21 20 20 16 14 13 20 21 16 19 4 4 7 10 14 3 9 5 8 7 8 10 5 14 4 1 7 9 2 1 7 8 6 6 4 4 16 16 12 12 12 17 10 10 11
21 21 20 21 21 18 15 13 18 20 20 15 15 9 8 8 7 4 8 8 6 14 20 39 13 6 6 3 19 31 27 5 3 10 6 8 10 7 3 5 10 8 6 1 6 5 14
22 21 22 21 22 21 17 15 15 25 24 15 14 8 3 7 4 4 7 6 12 13 8 17 22 6 5 29 9 21 34 30 30 17 13 11 9 6 7 7 2 6 8 5 7 5 6
30 26 24 23 21 22 18 16 13 24 19 28 21 9 5 5 7 12 16 7 27 22 11 18 35 21 25 8 7 8 10 10 10 13 15 11 10 8 10 4 8 11 7 11 10 14 13
29 27 26 25 22 22 21 16 13 20 19 22 33 22 8 3 8 9 10 13 5 9 11 10 13 16 5 5 6 6 7 7 3 7 11 13 14 9 6 10 13 13 7 16 9 8 30
33 27 26 25 24 22 23 17 13 15 21 16 16 38 18 6 11 4 3 6 9 6 6 12 25 14 11 4 5 6 3 1 8 11 6 6 7 9 4 4 9 9 14 16 8 12 43
35 32 27 26 24 23 24 20 14 13 22 18 17 27 32 13 42 27 19 23 24 4 5 19 14 6 9 6 4 5 5 3 6 5 7 9 10 5 5 5 10 4 13 14 8 5 52
38 35 30 29 25 24 25 23 15 13 15 19 13 26 25 22 21 19 25 27 27 37 39 10 7 6 5 2 5 2 4 5 8 6 6 2 8 10 12 9 3 8 5 8 14 27 48
Wind_Direction_500mb
267 268 269 272 277 282 286 292 297 303 309 313 316 316 316 316 319 323 328 331 330 329 330 327 333 335 343 341 82 74 155 183 170 166 166 169 164 156 126 129 94 84 86 54 102 107 88
275 266 268 272 275 279 284 289 294 299 304 308 311 312 313 316 321 324 328 331 329 331 332 332 334 331 331 53 27 29 152 175 173 167 175 171 125 12 119 101 140 111 95 90 97 93 98
293 276 267 268 271 275 279 284 289 294 300 305 307 310 313 318 323 325 328 331 327 331 331 335 332 328 293 169 350 45 149 167 175 171 178 193 73 339 128 90 111 110 85 75 95 119 125
310 289 273 270 270 273 277 282 286 293 299 304 308 311 314 320 324 325 329 329 326 330 322 326 326 324 246 196 300 167 154 162 177 186 196 309 225 334 99 116 112 84 64 131 208 167 198
302 306 287 273 274 275 277 281 286 292 299 304 307 311 316 323 326 327 328 328 322 319 318 327 318 309 240 228 38 26 173 173 181 194 257 272 272 147 129 109 73 334 163 175 157 209 189
284 298 301 290 277 277 279 282 287 292 299 304 307 311 317 326 330 333 333 335 316 300 332 318 307 291 239 139 326 320 171 159 168 199 167 152 138 84 41 92 194 180 118 149 155 174 67
267 279 291 297 294 283 279 283 288 294 297 301 304 310 316 328 333 344 342 350 357 346 316 272 256 280 286 276 343 177 199 178 183 197 98 65 93 192 204 159 144 131 127 158 95 44 75
257 264 278 287 295 296 291 287 289 293 297 301 303 308 315 329 334 347 356 55 29 330 304 298 289 264 257 266 282 174 187 185 153 152 87 31 223 202 118 137 135 145 127 142 110 98 97
251 255 266 275 284 292 297 297 297 296 297 301 305 308 314 330 336 357 36 19 351 329 281 299 269 250 232 210 217 207 181 177 141 130 155 150 210 98 147 154 140 200 186 184 132 108 65
247 249 254 265 275 282 291 297 300 300 300 302 304 309 316 331 340 359 344 345 331 320 35 276 275 266 168 139 234 209 194 178 21 188 182 212 261 184 148 209 162 221 184 138 138 121 155
250 256 247 260 262 275 284 292 298 301 301 302 303 307 316 323 320 338 331 336 331 103 2 277 261 136 176 176 141 187 183 196 166 191 112 248 209 184 270 224 166 360 108 117 121 84 115
250 249 252 250 256 268 277 282 293 299 301 302 302 304 308 308 311 328 333 335 146 46 263 328 137 138 116 272 88 118 156 177 215 200 260 230 229 246 205 127 139 127 89 53 52 77 46
253 246 254 257 258 260 263 277 284 294 299 301 300 299 300 296 298 318 331 337 43 151 322 308 353 161 161 174 253 125 146 165 163 120 267 331 236 242 158 96 45 104 90 62 15 15 210
269 265 254 256 258 258 258 268 276 289 298 301 300 297 290 281 298 307 330 46 152 260 275 324 311 156 174 161 238 183 140 186 253 114 134 156 328 180 187 152 174 191 163 152 184 176 203
276 272 266 260 260 261 261 263 273 283 298 303 304 302 295 286 279 262 2 63 211 215 315 330 323 117 203 228 185 179 180 188 202 180 161 164 288 324 20 103 125 178 67 149 107 60 104
269 276 272 271 265 266 263 263 266 280 298 305 313 317 296 280 217 188 83 234 257 241 340 336 316 27 208 246 162 167 193 195 206 187 157 210 73 345 153 66 45 121 146 90 28 133 171
261 268 280 280 276 267 271 273 256 271 290 304 318 314 298 256 161 165 174 230 277 287 304 239 277 318 223 256 197 196 208 243 199 174 155 147 126 287 35 18 173 57 60 58 106 102 151
263 261 268 281 287 279 268 272 262 256 271 297 308 318 329 156 110 80 174 204 309 303 319 268 232 206 245 297 265 224 204 224 140 141 160 181 130 77 121 299 172 88 123 124 119 215 89
262 262 260 273 284 293 269 260 265 242 248 279 281 280 196 183 150 243 269 268 264 274 266 291 273 192 334 263 261 215 198 139 162 141 159 173 32 82 358 349 7 67 56 101 98 95 182
273 261 258 266 277 286 287 247 254 225 227 227 282 331 210 221 257 151 196 276 271 302 256 269 273 316 285 296 217 278 220 50 86 86 128 121 105 146 178 201 141 128 144 143 107 109 165
269 263 261 257 270 278 290 245 234 204 223 199 231 257 316 255 267 203 158 303 317 327 302 280 259 14 302 313 320 210 266 94 68 152 43 89 103 89 11 127 99 106 133 144 97 140 141
262 261 253 253 254 272 279 261 226 201 205 207 216 305 338 283 300 252 167 240 221 245 229 287 51 307 329 225 3 300 330 47 179 58 76 16 107 118 34 22 63 84 80 90 62 108 78
257 260 254 254 249 258 271 272 224 201 206 196 221 263 299 297 308 156 216 192 261 333 253 242 283 303 353 260 319 266 255 312 130 141 116 79 128 77 79 28 33 22 236 76 152 158 147
256 262 255 252 249 246 261 268 230 214 209 199 203 202 228 280 279 247 321 309 274 259 258 306 289 225 268 326 299 89 97 81 63 35 93 117 91 73 125 14 233 260 312 181 127 127 159
254 256 257 251 251 241 250 263 245 224 235 213 199 201 185 284 300 299 335 283 312 299 242 235 273 270 303 324 81 42 353 27 20 32 45 80 103 80 133 170 308 320 211 149 176 231 179
253 251 249 248 245 238 238 259 257 233 232 225 212 198 120 339 244 323 315 334 351 323 319 260 273 302 309 86 89 126 188 160 54 42 38 57 74 107 137 151 194 237 191 175 159 304 169
247 248 245 245 242 237 231 243 263 248 229 230 215 221 218 258 275 300 343 317 353 326 265 305 335 330 6 85 104 154 177 177 147 145 130 30 20 113 118 147 285 250 162 154 94 239 172
245 242 241 241 239 235 227 230 252 259 222 229 229 224 211 221 259 267 266 283 299 336 357 324 336 334 346 57 120 213 114 177 81 136 155 163 130 146 96 95 253 168 122 161 210 138 175
240 238 237 234 236 233 227 223 234 250 228 213 233 209 216 232 263 259 255 258 262 287 281 280 285 278 339 20 36 103 81 114 159 166 34 147 172 172 172 210 281 263 239 243 185 172 177
Wind_Speed_850mb
25 28 27 27 29 30 30 32 32 33 34 35 36 38 40 42 46 52 54 54 56 50 47 39 26 20 13 4 7 5 16 28 26 32 28 17 9 6 8 9 9 10 8 25 44 33 21
24 26 28 27 28 30 31 32 32 33 34 34 36 38 40 43 47 52 55 55 54 49 40 29 19 16 9 2 6 7 18 28 30 30 26 16 3 1 6 10 8 27 40 32 42 28 25
20 27 27 27 27 28 29 30 31 31 32 33 34 38 40 44 48 53 55 54 52 41 28 21 17 18 10 4 2 5 18 22 29 28 19 8 2 6 6 18 38 60 23 20 16 24 13
22 22 27 28 27 27 28 28 29 30 31 33 34 37 40 43 48 53 55 52 50 29 20 18 17 16 5 9 3 3 15 26 28 25 11 4 5 8 7 60 13 13 9 12 13 25 18
21 22 22 26 29 27 28 29 28 29 31 33 36 38 40 41 45 52 52 50 35 23 15 20 15 8 4 3 6 2 19 27 25 14 9 14 8 8 18 15 9 6 12 9 15 31 4
23 22 22 22 26 29 29 30 30 29 30 33 36 39 40 40 44 51 50 47 20 17 13 14 7 5 4 3 4 6 13 19 15 7 11 10 7 6 7 7 11 9 10 6 14 7 10
29 25 23 22 23 26 30 30 31 30 31 32 35 38 39 38 41 38 50 34 16 6 37 24 18 17 28 9 5 10 14 20 12 1 4 4 9 9 12 11 13 10 8 9 9 1 14
35 30 28 26 25 25 26 29 29 29 30 32 34 36 37 34 36 28 24 22 27 25 29 45 49 49 45 42 13 5 16 14 10 6 2 9 6 12 12 13 12 6 9 7 9 10 16
39 37 34 32 29 28 27 28 28 28 29 31 34 34 36 30 25 23 14 31 27 30 10 25 11 16 15 20 14 15 22 13 8 8 7 7 7 11 12 8 12 11 13 13 14 16 19
42 40 37 35 36 32 31 30 30 29 29 30 33 34 35 28 7 21 6 31 32 18 8 12 7 3 21 13 8 23 20 14 2 12 9 6 7 6 2 8 15 8 17 27 33 9 10
42 28 39 38 39 36 33 33 33 33 32 31 32 34 31 26 29 20 19 30 22 2 8 3 2 6 23 20 6 11 25 19 11 7 8 7 3 5 5 9 16 2 33 29 12 11 10
40 43 33 44 30 39 40 37 35 35 36 34 33 35 32 29 27 10 29 29 2 9 8 10 7 4 7 2 1 8 13 13 12 4 1 13 9 8 16 6 15 30 34 18 12 8 6
23 30 36 39 41 40 38 39 36 37 38 38 36 35 34 31 24 25 29 15 7 6 9 9 5 1 7 6 3 4 9 9 10 7 5 8 7 8 9 17 4 16 13 6 4 2 8
21 17 26 31 30 35 41 38 34 35 38 41 40 39 34 32 27 21 20 7 4 6 10 6 6 3 12 11 9 8 12 11 9 7 5 3 4 6 8 15 17 17 14 12 13 10 7
21 22 24 22 33 32 34 36 35 34 35 39 42 39 35 24 16 11 2 5 12 9 8 14 13 5 5 6 6 7 16 17 17 17 12 8 8 7 4 6 7 10 8 10 15 5 8
18 21 23 25 26 28 34 36 35 30 30 34 39 36 24 14 17 14 8 9 8 6 11 8 5 5 6 6 10 11 14 11 11 20 11 3 2 4 5 8 19 9 12 6 7 9 5
20 19 20 22 23 27 26 24 30 27 25 27 29 20 5 7 32 13 6 12 11 17 8 8 6 5 6 5 12 10 14 5 11 10 19 9 6 5 7 8 5 3 5 14 12 6 10
19 20 18 19 20 22 23 21 21 23 20 18 12 6 17 36 7 2 6 10 8 9 10 12 7 8 8 4 6 11 14 8 3 24 18 10 10 7 3 10 1 6 7 9 9 7 4
19 20 20 19 18 18 19 18 17 17 15 10 7 12 10 9 5 3 8 7 7 6 7 9 7 7 3 5 4 9 9 3 7 10 16 14 3 7 12 12 6 12 5 9 12 8 9
18 19 20 19 17 17 16 17 15 14 14 10 6 5 6 20 8 7 1 6 8 12 14 18 9 6 5 3 7 4 6 6 9 7 14 14 7 12 14 13 8 8 5 4 9 8 10
21 20 19 19 17 16 14 17 15 16 16 13 6 5 3 4 6 5 4 3 7 11 10 11 2 4 4 5 7 5 4 3 12 3 7 7 9 6 8 2 8 7 6 6 6 10 6
23 20 21 20 20 16 14 13 20 21 16 19 4 4 7 10 14 3 9 5 8 7 8 10 5 14 4 1 7 9 2 1 7 8 6 6 4 4 16 16 12 12 12 17 10 10 11
21 21 20 21 21 18 15 13 18 20 20 15 15 9 8 8 7 4 8 8 6 14 20 39 13 6 6 3 19 31 27 5 3 10 6 8 10 7 3 5 10 8 6 1 6 5 14
22 21 22 21 22 21 17 15 15 25 24 15 14 8 3 7 4 4 7 6 12 13 8 17 22 6 5 29 9 21 34 30 30 17 13 11 9 6 7 7 2 6 8 5 7 5 6
30 26 24 23 21 22 18 16 13 24 19 28 21 9 5 5 7 12 16 7 27 22 11 18 35 21 25 8 7 8 10 10 10 13 15 11 10 8 10 4 8 11 7 11 10 14 13
29 27 26 25 22 22 21 16 13 20 19 22 33 22 8 3 8 9 10 13 5 9 11 10 13 16 5 5 6 6 7 7 3 7 11 13 14 9 6 10 13 13 7 16 9 8 30
33 27 26 25 24 22 23 17 13 15 21 16 16 38 18 6 11 4 3 6 9 6 6 12 25 14 11 4 5 6 3 1 8 11 6 6 7 9 4 4 9 9 14 16 8 12 43
35 32 27 26 24 23 24 20 14 13 22 18 17 27 32 13 42 27 19 23 24 4 5 19 14 6 9 6 4 5 5 3 6 5 7 9 10 5 5 5 10 4 13 14 8 5 52
38 35 30 29 25 24 25 23 15 13 15 19 13 26 25 22 21 19 25 27 27 37 39 10 7 6 5 2 5 2 4 5 8 6 6 2 8 10 12 9 3 8 5 8 14 27 48
Wind_Direction_850mb
267 268 269 272 277 282 286 292 297 303 309 313 316 316 316 316 319 323 328 331 330 329 330 327 333 335 343 341 82 74 155 183 170 166 166 169 164 156 126 129 94 84 86 54 102 107 88
275 266 268 272 275 279 284 289 294 299 304 308 311 312 313 316 321 324 328 331 329 331 332 332 334 331 331 53 27 29 152 175 173 167 175 171 125 12 119 101 140 111 95 90 97 93 98
293 276 267 268 271 275 279 284 289 294 300 305 307 310 313 318 323 325 328 331 327 331 331 335 332 328 293 169 350 45 149 167 175 171 178 193 73 339 128 90 111 110 85 75 95 119 125
310 289 273 270 270 273 277 282 286 293 299 304 308 311 314 320 324 325 329 329 326 330 322 326 326 324 246 196 300 167 154 162 177 186 196 309 225 334 99 116 112 84 64 131 208 167 198
302 306 287 273 274 275 277 281 286 292 299 304 307 311 316 323 326 327 328 328 322 319 318 327 318 309 240 228 38 26 173 173 181 194 257 272 272 147 129 109 73 334 163 175 157 209 189
284 298 301 290 277 277 279 282 287 292 299 304 307 311 317 326 330 333 333 335 316 300 332 318 307 291 239 139 326 320 171 159 168 199 167 152 138 84 41 92 194 180 118 149 155 174 67
267 279 291 297 294 283 279 283 288 294 297 301 304 310 316 328 333 344 342 350 357 346 316 272 256 280 286 276 343 177 199 178 183 197 98 65 93 192 204 159 144 131 127 158 95 44 75
257 264 278 287 295 296 291 287 289 293 297 301 303 308 315 329 334 347 356 55 29 330 304 298 289 264 257 266 282 174 187 185 153 152 87 31 223 202 118 137 135 145 127 142 110 98 97
251 255 266 275 284 292 297 297 297 296 297 301 305 308 314 330 336 357 36 19 351 329 281 299 269 250 232 210 217 207 181 177 141 130 155 150 210 98 147 154 140 200 186 184 132 108 65
247 249 254 265 275 282 291 297 300 300 300 302 304 309 316 331 340 359 344 345 331 320 35 276 275 266 168 139 234 209 194 178 21 188 182 212 261 184 148 209 162 221 184 138 138 121 155
250 256 247 260 262 275 284 292 298 301 301 302 303 307 316 323 320 338 331 336 331 103 2 277 261 136 176 176 141 187 183 196 166 191 112 248 209 184 270 224 166 360 108 117 121 84 115
250 249 252 250 256 268 277 282 293 299 301 302 302 304 308 308 311 328 333 335 146 46 263 328 137 138 116 272 88 118 156 177 215 200 260 230 229 246 205 127 139 127 89 53 52 77 46
253 246 254 257 258 260 263 277 284 294 299 301 300 299 300 296 298 318 331 337 43 151 322 308 353 161 161 174 253 125 146 165 163 120 267 331 236 242 158 96 45 104 90 62 15 15 210
269 265 254 256 258 258 258 268 276 289 298 301 300 297 290 281 298 307 330 46 152 260 275 324 311 156 174 161 238 183 140 186 253 114 134 156 328 180 187 152 174 191 163 152 184 176 203
276 272 266 260 260 261 261 263 273 283 298 303 304 302 295 286 279 262 2 63 211 215 315 330 323 117 203 228 185 179 180 188 202 180 161 164 288 324 20 103 125 178 67 149 107 60 104
269 276 272 271 265 266 263 263 266 280 298 305 313 317 296 280 217 188 83 234 257 241 340 336 316 27 208 246 162 167 193 195 206 187 157 210 73 345 153 66 45 121 146 90 28 133 171
261 268 280 280 276 267 271 273 256 271 290 304 318 314 298 256 161 165 174 230 277 287 304 239 277 318 223 256 197 196 208 243 199 174 155 147 126 287 35 18 173 57 60 58 106 102 151
263 261 268 281 287 279 268 272 262 256 271 297 308 318 329 156 110 80 174 204 309 303 319 268 232 206 245 297 265 224 204 224 140 141 160 181 130 77 121 299 172 88 123 124 119 215 89
262 262 260 273 284 293 269 260 265 242 248 279 281 280 196 183 150 243 269 268 264 274 266 291 273 192 334 263 261 215 198 139 162 141 159 173 32 82 358 349 7 67 56 101 98 95 182
273 261 258 266 277 286 287 247 254 225 227 227 282 331 210 221 257 151 196 276 271 302 256 269 273 316 285 296 217 278 220 50 86 86 128 121 105 146 178 201 141 128 144 143 107 109 165
269 263 261 257 270 278 290 245 234 204 223 199 231 257 316 255 267 203 158 303 317 327 302 280 259 14 302 313 320 210 266 94 68 152 43 89 103 89 11 127 99 106 133 144 97 140 141
262 261 253 253 254 272 279 261 226 201 205 207 216 305 338 283 300 252 167 240 221 245 229 287 51 307 329 225 3 300 330 47 179 58 76 16 107 118 34 22 63 84 80 90 62 108 78
257 260 254 254 249 258 271 272 224 201 206 196 221 263 299 297 308 156 216 192 261 333 253 242 283 303 353 260 319 266 255 312 130 141 116 79 128 77 79 28 33 22 236 76 152 158 147
256 262 255 252 249 246 261 268 230 214 209 199 203 202 228 280 279 247 321 309 274 259 258 306 289 225 268 326 299 89 97 81 63 35 93 117 91 73 125 14 233 260 312 181 127 127 159
254 256 257 251 251 241 250 263 245 224 235 213 199 201 185 284 300 299 335 283 312 299 242 235 273 270 303 324 81 42 353 27 20 32 45 80 103 80 133 170 308 320 211 149 176 231 179
253 251 249 248 245 238 238 259 257 233 232 225 212 198 120 339 244 323 315 334 351 323 319 260 273 302 309 86 89 126 188 160 54 42 38 57 74 107 137 151 194 237 191 175 159 304 169
247 248 245 245 242 237 231 243 263 248 229 230 215 221 218 258 275 300 343 317 353 326 265 305 335 330 6 85 104 154 177 177 147 145 130 30 20 113 118 147 285 250 162 154 94 239 172
245 242 241 241 239 235 227 230 252 259 222 229 229 224 211 221 259 267 266 283 299 336 357 324 336 334 346 57 120 213 114 177 81 136 155 163 130 146 96 95 253 168 122 161 210 138 175
240 238 237 234 236 233 227 223 234 250 228 213 233 209 216 232 263 259 255 258 262 287 281 280 285 278 339 20 36 103 81 114 159 166 34 147 172 172 172 210 281 263 239 243 185 172 177